Meriden, CT

10:23 PM EDT on October 20, 2017 (GMT -0400)
Meriden Markham Municipal

Weather History for KMMK - August, 2014

Change the Weather History Date:

Saturday, August 16, 2014

  Actual Average (KOXC) Record (KOXC)
Temperature  
Mean Temperature 64 °F -  
Max Temperature 77 °F 76 °F 87 °F (1997)
Min Temperature 50 °F 59 °F 51 °F (2013)
Degree Days  
Heating Degree Days 2    
Growing Degree Days 14 (Base 50)    
Moisture  
Dew Point 52 °F    
Average Humidity 68    
Maximum Humidity 93    
Minimum Humidity 33    
Precipitation  
Precipitation 0.00 in - - ()
Sea Level Pressure  
Sea Level Pressure 29.96 in    
Wind  
Wind Speed 2 mph (SW)    
Max Wind Speed 10 mph    
Max Gust Speed 17 mph    
Visibility 10 miles    
Events      
Averages and records for this station are not official NWS values.
T = Trace of Precipitation, MM = Missing Value Source: NWS Daily Summary

Daily Weather History Graph

Daily Weather History Graph

Search for Another Location

Airport or City:

Trip Planner

Search our weather history database for the weather conditions in past years. The results will help you decide how hot, cold, wet, or windy it might be!

Date:

Astronomy

Aug. 16, 2014 Rise Set
Actual Time 6:01 AM EDT 7:49 PM EDT
Civil Twilight 5:31 AM EDT 8:18 PM EDT
Nautical Twilight 4:55 AM EDT 8:54 PM EDT
Astronomical Twilight 4:16 AM EDT 9:33 PM EDT
Moon 11:25 PM EDT (8/16) 12:49 PM EDT (8/16)
Length of Visible Light 14h 47m
Length of Day
13h 48m
Waning Gibbous, 59% of the Moon is Illuminated
Aug 16
Waning Gibbous
Aug 17
Last Quarter
Aug 25
New
Sep 2
First Quarter
Sep 8
Full

Hourly Weather History & Observations

Time (EDT) Temp. Dew Point Humidity Pressure Visibility Wind Dir Wind Speed Gust Speed Precip Events Conditions
1:53 AM 52.0 °F 48.9 °F 89% 29.96 in 10.0 mi Calm Calm - N/A   Clear
2:53 AM 51.1 °F 48.9 °F 92% 29.97 in 10.0 mi Calm Calm - N/A   Partly Cloudy
3:53 AM 51.1 °F 48.9 °F 92% 29.97 in 10.0 mi Calm Calm - N/A   Scattered Clouds
4:53 AM 50.0 °F 48.0 °F 93% 29.98 in 10.0 mi Calm Calm - N/A   Clear
5:53 AM 50.0 °F 46.9 °F 89% 29.98 in 7.0 mi Calm Calm - N/A   Clear
6:53 AM 52.0 °F 50.0 °F 93% 29.99 in 10.0 mi Calm Calm - N/A   Clear
7:53 AM 55.9 °F 53.1 °F 90% 30.00 in 10.0 mi Calm Calm - N/A   Clear
8:53 AM 64.0 °F 55.0 °F 73% 30.00 in 10.0 mi Calm Calm - N/A   Clear
9:53 AM 70.0 °F 53.1 °F 55% 30.00 in 10.0 mi WSW 4.6 mph - N/A   Clear
10:53 AM 72.0 °F 51.1 °F 48% 30.00 in 10.0 mi SW 6.9 mph - N/A   Clear
11:53 AM 75.0 °F 52.0 °F 44% 29.99 in 10.0 mi SW 8.1 mph - N/A   Clear
12:53 PM 75.0 °F 52.0 °F 44% 29.99 in 10.0 mi WSW 5.8 mph - N/A   Partly Cloudy
1:53 PM 75.9 °F 46.0 °F 35% 29.97 in 10.0 mi WSW 8.1 mph 17.3 mph N/A   Clear
2:53 PM 77.0 °F 46.0 °F 33% 29.96 in 10.0 mi SW 10.4 mph 17.3 mph N/A   Clear
3:53 PM 75.0 °F 46.0 °F 36% 29.95 in 10.0 mi SSW 10.4 mph - N/A   Clear
4:53 PM 73.0 °F 48.9 °F 42% 29.95 in 10.0 mi SW 4.6 mph - N/A   Clear
5:53 PM 73.9 °F 51.1 °F 45% 29.94 in 10.0 mi SSW 3.5 mph - N/A   Clear
6:53 PM 70.0 °F 57.0 °F 63% 29.92 in 10.0 mi Calm Calm - N/A   Clear
7:53 PM 68.0 °F 57.9 °F 70% 29.94 in 10.0 mi Calm Calm - N/A   Clear
8:53 PM 64.9 °F 57.9 °F 78% 29.94 in 10.0 mi Calm Calm - N/A   Clear
9:53 PM 64.0 °F 57.9 °F 80% 29.93 in 10.0 mi Calm Calm - N/A   Clear
10:53 PM 63.0 °F 59.0 °F 87% 29.92 in 10.0 mi Calm Calm - N/A   Clear
11:53 PM 64.0 °F 60.1 °F 87% 29.91 in 10.0 mi Calm Calm - N/A   Clear